Wind_Speed
14 14 14 14 14 14 13 13 13 13 13 13 13 14 15 15 16 15 15 15 15 14 13 12 11 11 10 8 7 7 6 6 7 7 8 6 5 8 9 8 13 19 20 20 22 20 18 18 20 20 19 20 19 17 15 13 12 12 11 10 8 8 8 9 9 8 10 10 9 9 11 10 7 9 11 11 11 11 10 11 10 9 8 7 6 3 6 8
14 14 14 15 15 15 14 14 14 14 13 13 13 13 14 14 14 15 15 15 15 16 15 14 13 12 12 11 10 9 9 8 8 6 4 4 5 7 10 10 12 18 21 21 23 22 21 20 21 20 20 20 19 17 15 14 13 11 10 9 7 7 8 10 9 8 10 10 9 9 10 10 8 6 8 9 10 11 11 11 10 9 8 8 7 4 5 8
14 14 14 15 15 15 15 15 15 15 14 14 13 13 13 13 13 13 14 14 15 16 16 16 15 14 13 13 13 12 12 11 8 5 4 4 6 7 10 12 13 18 21 22 24 24 22 21 20 20 19 19 18 17 16 15 13 11 10 9 7 7 7 9 9 8 9 10 9 9 8 9 9 6 6 8 8 10 10 10 10 8 7 7 8 6 5 8
14 14 14 14 15 15 15 16 16 15 15 14 14 14 14 14 13 13 12 13 14 15 16 17 17 16 15 15 16 15 15 14 10 6 7 7 7 7 11 14 14 19 22 22 24 24 23 21 19 19 18 18 17 17 17 15 14 12 10 9 8 8 7 7 8 9 10 10 9 9 8 8 8 7 5 6 7 8 9 9 9 8 6 7 7 6 5 8
14 14 14 14 14 14 15 15 16 16 15 15 14 14 14 14 14 13 12 12 12 13 15 17 18 18 17 16 17 18 19 17 13 10 9 9 9 8 11 15 15 19 23 21 22 24 23 20 18 18 17 16 16 17 18 17 15 13 10 10 10 9 7 6 8 8 9 10 9 8 9 7 7 7 4 6 6 6 7 7 8 7 6 6 7 6 5 7
15 14 14 14 14 14 14 14 15 15 15 15 14 14 14 14 14 14 13 12 11 11 13 16 18 18 19 19 18 20 21 20 16 13 11 10 10 9 10 14 15 18 22 21 21 22 22 21 19 18 17 16 17 18 19 18 17 14 12 11 11 10 8 7 8 7 8 8 8 8 9 8 7 7 5 6 6 5 6 7 8 8 7 6 6 7 6 8
15 15 15 15 15 15 14 15 14 14 14 14 14 14 14 14 14 14 14 13 12 11 11 13 16 19 20 20 21 21 23 23 18 15 13 12 12 11 11 13 15 16 19 20 19 20 22 21 19 19 18 17 17 18 19 18 17 14 12 11 11 11 9 9 9 7 7 7 7 8 9 9 8 8 6 6 6 5 6 7 8 8 8 7 5 7 7 8
17 17 16 16 16 16 15 15 15 15 14 14 13 13 14 13 13 14 14 14 13 12 11 10 13 17 19 21 23 24 25 23 19 18 17 14 13 13 12 13 14 15 17 19 19 20 22 21 20 20 19 18 18 18 19 18 16 14 12 11 11 11 10 10 8 6 7 6 6 8 9 9 9 9 8 7 7 6 6 6 7 8 9 8 6 6 7 8
18 18 18 18 17 17 17 16 16 16 15 14 13 13 13 13 13 13 14 14 14 13 12 11 11 13 17 21 23 26 26 23 22 23 21 16 15 14 13 13 14 15 17 20 21 21 21 22 22 21 20 20 19 19 19 17 16 15 14 13 11 11 10 10 7 6 6 5 7 9 10 10 10 10 9 9 8 7 6 6 7 7 8 9 7 7 7 9
19 19 19 19 18 18 18 18 17 17 16 15 15 13 13 13 13 13 13 14 14 14 13 12 11 11 14 19 24 27 25 24 25 25 24 20 16 15 14 14 14 16 18 19 21 19 19 22 24 24 22 21 20 19 19 18 17 16 15 14 13 12 11 10 7 6 7 6 7 10 10 11 11 11 10 10 9 8 8 7 7 7 7 9 9 8 7 8
20 20 20 20 20 19 19 19 19 18 17 17 16 15 15 14 14 14 14 14 14 14 14 13 12 11 12 15 22 26 23 23 27 26 26 23 18 17 16 15 15 17 18 19 21 20 22 26 27 26 25 23 22 19 18 18 17 16 16 15 14 13 11 10 7 7 8 6 8 10 10 10 10 11 11 10 10 10 9 8 8 7 7 8 9 9 9 8
20 20 20 20 20 20 20 20 20 19 19 18 17 17 16 16 16 16 16 16 15 15 14 14 13 12 13 14 17 20 21 24 28 28 27 26 22 20 18 18 17 18 19 20 22 24 27 28 27 27 25 23 22 21 19 18 17 17 17 15 14 13 12 10 9 10 10 8 9 11 10 11 10 10 11 10 10 10 10 9 8 7 6 8 9 9 9 9
20 21 21 21 21 21 20 21 21 21 20 19 19 18 18 17 17 17 17 17 17 16 16 15 15 13 15 15 13 15 19 25 29 29 29 28 26 23 21 21 20 20 21 22 25 27 28 28 28 28 24 23 25 22 19 18 18 17 16 16 14 13 13 11 11 11 11 10 11 12 10 10 10 10 11 10 10 10 10 10 9 7 6 6 8 9 9 9
20 21 21 21 21 21 21 21 21 22 21 21 20 20 20 19 18 18 18 18 18 17 17 17 17 16 16 16 13 13 17 23 29 31 30 30 29 27 25 23 22 22 23 24 26 26 27 28 28 27 24 25 25 21 20 20 19 18 17 17 15 13 13 13 12 12 12 11 12 12 11 10 9 9 10 11 11 10 10 10 9 8 7 7 7 9 9 9
21 21 22 22 22 22 21 21 22 22 22 22 22 21 21 20 20 19 19 19 19 18 18 18 18 18 19 17 15 14 15 20 27 30 31 31 31 29 28 26 25 24 24 25 25 26 26 26 26 25 25 27 24 22 23 23 21 19 18 16 15 14 14 14 15 15 14 14 13 12 11 10 10 10 11 12 12 11 10 9 9 8 7 7 7 8 9 9
22 23 23 24 23 23 23 22 22 23 23 23 23 23 23 22 21 21 21 21 20 19 18 19 19 18 20 20 17 16 15 18 23 27 30 32 32 32 31 29 27 26 26 25 25 27 27 26 25 25 27 28 25 24 25 25 24 21 19 16 15 15 14 15 18 18 16 15 14 13 12 12 12 12 12 13 12 11 11 9 8 7 6 7 8 8 9 9
25 25 25 25 25 24 24 24 23 23 24 23 24 24 24 23 23 22 22 22 22 21 20 20 20 19 20 21 20 18 16 17 20 23 27 31 33 34 33 31 30 29 27 27 27 27 28 28 27 25 25 26 26 27 27 27 24 21 20 17 16 16 14 16 20 19 17 15 14 14 14 14 15 15 13 13 12 11 11 9 7 6 5 6 7 8 9 9
28 28 28 28 27 26 25 25 25 25 25 24 24 25 25 25 24 24 23 23 23 23 22 21 21 21 20 21 21 19 17 17 19 21 23 28 33 35 35 34 33 32 30 29 29 28 28 28 28 28 27 27 27 27 24 23 22 20 19 18 17 17 16 18 20 20 18 16 16 15 15 16 17 17 16 14 13 12 11 9 7 5 5 5 6 8 9 10
30 30 31 31 30 29 27 27 26 26 26 26 25 25 26 26 25 25 24 24 24 25 24 23 22 23 22 21 21 20 19 18 19 21 21 25 31 35 36 36 35 34 33 31 30 30 29 29 29 29 28 27 24 22 19 19 21 21 18 18 18 17 17 20 22 22 21 19 18 17 16 17 18 17 17 16 14 13 11 10 8 5 4 5 6 7 8 9
31 31 32 32 32 31 30 29 28 27 27 28 27 26 26 26 26 26 25 25 25 25 26 25 24 24 24 23 21 21 20 19 20 21 22 23 27 33 37 38 37 37 35 34 32 31 32 31 29 27 24 22 21 20 19 20 22 23 21 20 20 18 17 20 24 25 25 23 21 21 19 19 18 16 15 15 14 13 12 11 9 7 5 4 5 7 8 8
33 33 33 34 34 33 32 31 30 29 28 29 29 28 28 27 27 26 26 26 26 26 26 26 25 24 25 25 23 22 21 21 21 22 23 23 25 30 35 38 38 38 37 36 35 34 35 32 28 28 25 23 23 23 22 21 21 23 23 22 22 20 18 22 27 27 27 26 23 23 22 20 19 17 16 15 14 13 12 11 10 8 7 6 5 6 7 7
34 34 34 35 35 35 34 33 32 30 30 29 30 30 29 28 28 27 26 26 26 28 27 26 26 26 26 26 24 24 23 22 22 22 23 23 25 28 32 37 39 39 39 40 38 37 36 32 29 30 29 28 27 25 26 24 22 23 23 24 24 22 21 25 29 30 28 26 24 24 23 22 21 20 19 17 16 14 13 12 11 10 9 8 7 7 6 6
35 35 35 36 36 37 36 35 34 32 31 31 30 31 31 30 29 29 28 26 25 29 28 27 27 26 27 27 25 24 24 24 24 23 23 23 25 27 30 34 38 40 42 42 40 38 38 34 30 32 33 32 29 28 30 29 27 25 25 27 26 25 26 24 27 30 29 27 25 24 24 23 22 22 20 19 17 16 14 13 12 11 10 10 9 9 8 7
36 36 36 36 37 38 37 36 36 34 33 32 32 31 32 32 31 30 30 27 25 28 30 29 28 28 28 27 27 26 24 24 25 24 24 24 24 26 28 31 36 42 44 42 41 41 41 36 33 36 36 32 31 33 33 32 31 28 27 29 28 28 28 24 27 31 30 30 27 25 26 25 23 22 21 20 19 17 15 14 13 13 12 12 11 11 10 10
39 37 37 37 38 39 39 38 37 36 35 34 33 33 33 33 33 32 31 30 26 27 30 30 29 29 29 28 28 27 25 25 26 26 24 24 23 24 27 31 35 41 43 43 42 43 43 41 38 37 35 34 36 37 34 32 31 29 29 30 31 31 29 27 31 32 31 32 30 27 27 25 23 23 22 21 20 17 16 15 14 14 13 12 12 12 12 12
40 40 39 38 39 39 41 40 39 38 37 36 35 34 34 34 34 34 33 33 29 26 29 31 30 30 31 31 29 28 28 27 27 26 25 25 25 24 26 30 34 38 42 45 45 45 46 45 40 37 36 38 40 39 36 34 33 31 28 29 32 34 31 31 33 33 32 33 31 31 29 25 23 24 23 22 21 20 19 17 16 15 14 12 12 12 12 12
41 41 40 40 40 40 42 43 42 40 39 37 36 36 36 35 35 35 35 37 32 27 28 30 29 29 30 32 30 29 30 30 28 27 26 27 28 26 26 28 32 37 41 45 48 48 49 46 41 38 40 43 43 40 37 36 35 31 27 29 33 35 35 35 34 32 34 34 32 32 30 26 25 25 24 24 23 22 21 19 17 16 15 14 12 12 12 12
42 42 42 42 42 42 43 44 45 43 41 39 38 38 38 37 37 36 37 39 35 30 29 29 28 29 30 31 31 30 30 30 30 29 26 27 28 27 27 27 30 36 39 41 46 49 48 46 42 40 43 46 44 40 39 39 36 31 30 33 35 35 37 37 35 33 34 35 34 31 31 31 27 25 25 24 24 22 19 18 16 15 15 15 14 13 12 12
43 43 43 43 43 43 44 45 46 46 44 42 41 40 39 38 38 38 39 40 36 31 31 30 30 30 30 30 31 31 30 31 32 31 28 28 29 27 27 27 28 34 38 39 44 50 50 47 45 44 46 48 45 42 43 43 39 36 36 35 35 36 38 37 36 34 31 34 35 30 31 33 28 26 26 25 24 21 17 17 16 16 17 17 16 15 14 13
44 43 43 43 44 45 45 46 47 47 46 45 44 43 41 41 40 40 43 41 34 32 33 33 32 31 31 31 31 32 32 32 32 33 31 29 29 29 28 28 27 31 37 39 44 51 53 50 49 48 49 50 48 46 47 46 44 43 39 36 35 37 39 39 40 37 31 32 34 32 30 32 30 29 28 26 23 20 17 18 19 18 19 19 18 17 15 14
44 44 44 44 45 46 46 48 48 48 48 47 46 45 44 44 43 44 46 39 33 34 35 35 34 32 33 33 32 32 33 33 32 33 34 31 30 31 30 29 29 31 35 38 43 49 52 52 51 51 51 51 51 51 51 48 47 47 43 39 39 39 41 42 42 43 41 35 35 36 34 34 33 30 29 27 23 21 20 20 20 20 20 20 19 18 18 17
46 45 45 45 46 47 49 50 49 50 50 49 48 47 46 47 47 49 46 37 34 36 35 35 35 34 35 34 34 33 33 33 33 33 34 33 32 31 30 30 29 30 32 35 41 46 49 51 52 52 52 52 53 55 53 50 52 53 49 47 48 44 43 45 45 48 50 43 38 37 38 41 37 29 29 28 22 21 22 22 22 21 20 20 20 21 21 20
49 48 48 47 47 48 50 51 52 52 52 51 51 50 49 50 50 49 44 38 36 37 36 37 37 37 37 37 36 35 33 34 35 34 34 34 34 32 31 31 30 29 30 33 38 43 47 50 53 54 54 54 55 56 55 55 56 56 53 54 53 46 43 48 49 50 51 46 43 43 42 44 42 32 28 26 23 22 23 24 24 22 20 20 21 22 21 19
52 51 51 51 50 50 52 53 54 55 55 54 54 53 53 54 51 48 45 41 38 38 39 40 39 39 40 39 39 37 35 35 35 35 36 35 35 35 33 32 31 30 31 34 36 41 46 48 51 55 56 56 56 56 57 57 57 56 54 54 54 50 45 46 49 48 48 45 44 48 49 46 43 35 27 24 25 25 25 26 26 23 21 22 23 22 19 17
55 56 55 54 53 53 53 54 55 56 57 57 57 57 58 56 51 49 47 43 40 41 43 43 42 42 42 41 41 39 37 37 36 35 37 37 36 35 34 33 31 29 31 34 36 39 44 45 48 52 55 57 57 56 57 60 61 58 55 56 58 55 48 45 47 45 41 42 44 50 53 48 45 37 27 25 28 29 28 28 26 24 24 24 23 21 19 17
59 59 58 57 56 56 56 56 57 58 59 59 61 62 60 56 52 51 50 46 44 44 46 46 45 44 43 43 43 41 40 40 38 36 37 38 37 36 36 34 32 30 31 34 36 38 41 45 49 51 53 57 58 57 57 61 63 61 61 61 58 54 49 43 44 41 36 39 44 49 50 46 45 38 27 28 32 32 31 29 27 26 26 24 21 18 16 14
61 62 61 60 59 59 59 59 60 60 60 61 63 63 60 57 55 53 52 49 47 47 48 49 48 46 45 44 43 43 42 41 40 38 37 39 39 38 37 36 33 31 32 34 35 37 39 44 49 49 51 57 58 57 57 60 62 64 64 61 56 58 57 46 40 40 40 40 43 46 44 41 43 37 27 32 35 33 32 30 27 26 25 23 19 16 15 13
62 63 64 63 62 62 62 62 62 62 62 64 64 63 62 60 57 54 52 50 49 50 51 51 50 48 47 45 44 46 44 41 42 41 38 40 40 38 37 36 33 31 32 33 35 38 39 41 47 48 49 55 57 58 59 60 61 63 64 64 62 63 64 56 47 42 40 42 47 47 41 39 41 35 29 34 36 33 32 30 28 26 22 20 18 15 15 15
63 64 65 65 65 65 65 65 65 64 66 66 65 64 63 62 58 54 52 50 50 53 53 52 51 50 49 46 46 48 45 42 44 43 40 39 40 39 37 35 33 31 31 33 35 38 39 39 44 48 49 52 57 59 61 61 60 61 65 69 68 66 66 63 59 53 45 41 43 45 45 44 41 35 31 34 37 36 33 30 28 25 21 21 19 16 15 15
64 64 64 65 66 67 67 67 68 67 68 67 65 65 64 63 61 56 52 51 52 54 55 54 53 52 51 47 47 49 47 44 46 45 41 41 40 39 37 34 33 32 30 32 34 36 39 39 40 45 48 51 57 60 61 61 61 63 67 69 68 70 70 64 62 63 59 51 43 41 46 48 43 37 34 35 38 38 34 30 28 24 21 22 21 18 16 14
65 64 64 64 65 67 68 69 69 69 69 68 66 66 66 65 63 58 54 53 55 56 56 55 55 54 52 50 48 49 47 46 46 45 44 43 40 39 38 35 33 33 31 33 35 36 39 39 39 43 49 50 53 57 59 59 60 62 66 66 68 72 72 67 65 59 54 56 51 41 44 46 41 38 36 36 38 37 33 30 28 23 21 22 21 19 18 15
64 63 63 63 65 67 68 69 69 70 70 69 68 67 66 66 64 60 57 56 57 57 57 57 57 55 54 52 50 49 49 47 47 47 46 44 41 39 39 36 33 33 33 33 34 35 36 39 40 43 47 48 48 53 57 59 58 59 62 65 67 70 71 71 72 62 50 54 55 49 47 44 42 43 38 37 39 40 35 31 29 26 23 22 20 18 18 17
62 61 62 63 63 65 67 68 68 69 69 69 69 68 67 66 63 61 60 58 58 59 59 59 58 56 55 54 51 49 49 48 47 47 47 46 43 40 38 37 35 34 35 34 35 35 37 40 41 41 44 47 47 48 53 58 58 57 60 64 66 69 70 69 72 69 59 55 56 54 51 46 45 48 43 36 37 38 36 32 30 28 25 22 19 19 19 18
59 58 60 62 62 64 66 66 67 68 69 69 70 70 68 66 63 62 61 59 59 59 59 59 59 58 56 54 51 49 48 48 47 47 47 46 44 40 38 39 38 37 36 35 37 38 39 40 40 40 43 47 47 47 51 58 60 59 61 65 66 67 69 69 70 71 68 64 60 58 58 54 51 50 44 35 32 32 31 31 29 28 27 25 22 21 21 19
56 56 58 61 62 63 65 65 67 68 68 69 69 69 67 66 63 61 59 59 59 59 60 60 59 59 57 55 53 50 48 49 48 47 47 47 45 41 40 40 40 39 37 38 39 39 38 40 41 41 42 45 47 48 51 56 60 62 64 65 66 67 68 69 70 72 74 73 69 65 63 56 53 54 48 39 34 31 29 29 30 28 27 26 23 22 21 20
56 56 58 61 62 63 64 65 66 67 67 68 68 66 64 64 63 61 60 60 60 60 60 60 60 60 58 56 54 51 49 49 49 48 48 48 45 42 42 42 41 41 40 39 39 38 38 42 43 42 42 43 44 44 47 51 54 60 64 63 64 66 67 68 71 73 74 75 75 74 69 58 54 56 51 41 37 34 30 29 32 29 25 24 23 23 22 22
57 57 58 61 61 62 64 64 65 66 66 66 66 63 62 62 62 62 61 60 60 60 60 60 60 60 58 56 54 51 49 48 49 50 49 48 47 45 44 44 42 42 40 39 39 38 39 42 42 41 41 42 41 41 43 47 51 55 59 61 63 64 65 68 72 72 72 74 76 76 75 70 63 57 50 43 40 36 31 31 32 28 24 23 24 24 23 22
57 57 58 60 60 60 61 61 63 63 62 61 62 61 60 60 61 62 61 61 60 60 61 60 60 60 58 56 54 51 50 49 50 51 50 50 50 48 45 44 43 43 42 41 40 39 39 40 39 40 41 40 40 40 40 43 48 50 53 58 60 62 63 67 70 70 70 75 77 75 76 74 67 60 53 47 41 35 33 32 31 29 26 23 21 21 21 22
56 56 57 58 58 57 56 56 58 59 58 58 59 59 58 59 60 61 62 63 62 62 62 61 59 59 57 54 53 53 52 51 51 52 52 53 52 49 46 45 44 43 42 42 42 40 39 40 39 39 40 40 39 39 38 41 44 45 49 54 56 58 60 63 66 67 68 72 74 75 74 70 65 61 55 51 47 41 35 32 32 33 31 27 23 19 20 22
54 54 54 55 56 56 54 52 52 55 56 56 56 56 57 59 60 62 64 64 63 60 59 57 57 57 56 55 56 55 53 52 52 52 54 55 53 50 48 47 46 45 44 43 42 40 40 40 40 40 42 42 40 38 38 40 39 39 44 50 52 54 56 58 61 63 65 68 69 71 73 70 65 60 55 54 54 49 40 35 34 35 35 31 27 23 22 24
51 51 51 51 51 53 54 52 50 49 52 54 55 56 57 58 60 62 62 61 59 57 57 58 59 61 60 59 57 55 54 54 53 53 55 55 53 52 51 50 50 49 47 45 44 42 42 41 40 41 42 42 40 37 37 39 39 39 44 47 49 51 52 53 57 60 62 65 66 67 70 69 65 60 56 54 54 52 46 39 36 36 34 30 29 27 25 26
47 47 48 48 48 47 49 51 50 48 47 50 53 55 57 57 58 59 59 58 57 56 58 60 61 61 60 58 57 57 57 56 53 53 55 55 53 54 52 51 50 50 49 47 45 43 43 42 41 42 42 40 39 37 37 38 42 45 47 46 48 51 52 53 55 59 61 62 63 65 67 66 63 60 56 52 50 51 48 40 37 38 34 30 30 29 28 27
Wind_Direction
315 313 312 310 309 308 308 308 308 309 309 308 305 298 291 283 276 270 264 261 260 257 253 252 247 235 222 218 225 236 235 221 217 227 236 233 217 201 194 191 185 182 181 184 190 190 186 179 171 164 154 149 148 146 146 144 141 137 129 126 134 133 135 145 143 139 133 125 128 128 120 112 112 122 123 123 125 124 124 125 123 123 126 123 120 162 184 162
319 315 312 309 308 307 306 305 304 304 305 307 308 306 303 296 287 278 270 262 258 256 253 250 249 244 231 223 222 230 238 236 229 233 251 220 199 199 190 191 189 183 180 182 188 191 191 187 179 172 160 154 154 153 153 151 150 147 135 130 137 142 146 148 147 147 139 131 136 134 124 119 111 117 126 125 127 125 125 124 122 124 128 126 123 140 178 160
329 323 319 313 309 307 304 304 303 302 302 302 303 305 305 304 300 292 280 269 259 254 252 249 246 245 239 229 225 228 234 240 239 222 218 208 198 191 185 189 191 185 182 182 188 192 195 194 187 180 168 160 159 158 159 157 156 154 140 135 142 153 157 149 150 154 148 141 139 136 128 125 118 112 120 124 127 126 124 123 121 125 130 130 126 137 168 156
334 330 326 322 317 311 307 304 302 300 300 300 300 301 301 302 303 302 296 281 267 255 250 248 244 241 240 235 229 228 233 238 242 222 205 209 209 193 184 189 192 187 186 187 188 193 198 200 193 184 174 166 164 163 162 163 162 159 148 146 153 158 161 153 153 157 155 147 139 136 134 132 123 109 111 123 127 129 127 123 121 123 129 132 126 131 156 152
333 332 330 327 323 319 314 309 304 301 299 298 298 298 298 299 300 301 301 294 281 265 251 246 243 239 237 236 232 230 234 238 240 231 211 209 217 205 188 194 196 189 191 191 189 193 198 202 198 187 179 172 167 165 166 167 166 164 160 157 157 159 165 161 161 157 149 146 138 130 134 139 129 111 112 124 126 135 135 128 124 121 122 129 124 124 144 149
326 328 329 328 326 322 319 315 310 306 302 300 298 296 296 296 298 299 297 296 292 281 263 248 242 239 236 234 233 232 235 238 239 237 224 213 220 219 200 200 203 196 194 195 191 193 196 201 201 191 184 176 172 170 169 172 170 167 165 163 160 160 163 163 172 164 144 148 142 127 133 145 137 122 126 129 130 142 142 134 129 123 118 119 118 120 136 147
317 320 322 324 324 323 321 318 315 311 308 305 302 298 295 294 295 295 295 294 293 290 279 260 246 239 236 233 233 233 235 238 240 240 234 220 217 222 216 207 208 206 200 197 195 193 195 201 200 195 190 182 179 174 171 175 175 174 172 171 168 165 167 169 176 169 148 154 144 130 136 145 141 133 133 129 131 143 143 137 133 127 121 118 117 120 131 140
311 312 314 316 318 319 320 318 316 313 311 309 307 302 299 296 294 292 291 292 292 290 285 276 258 243 237 234 233 233 235 242 242 239 239 229 219 220 220 216 213 213 207 201 198 194 195 199 199 199 195 187 186 178 173 175 176 180 179 175 173 166 165 169 171 162 160 161 138 134 140 144 143 137 134 129 130 139 143 140 135 132 129 125 121 123 131 137
309 308 309 309 310 312 314 315 315 313 312 310 308 305 302 300 296 293 291 291 291 290 287 282 274 256 242 235 234 233 234 241 240 238 240 233 224 221 219 219 216 214 211 205 201 198 195 195 197 201 198 193 192 183 176 175 175 179 174 167 164 156 154 160 158 147 159 160 139 138 139 142 141 135 133 130 130 133 134 131 130 136 138 134 130 126 133 143
310 308 306 305 306 306 308 309 310 311 311 310 308 305 302 299 298 296 294 293 291 291 290 285 280 270 253 240 237 235 232 238 241 240 242 237 228 224 220 218 218 214 213 209 206 203 196 194 198 202 201 200 201 191 182 181 179 178 172 164 161 157 157 161 156 143 150 156 145 141 139 138 136 133 130 126 128 128 124 120 123 139 148 145 143 138 134 141
312 310 307 304 303 302 303 304 304 305 306 308 307 305 302 299 296 295 294 294 294 294 294 290 284 276 265 248 242 240 234 235 241 240 241 241 232 227 223 219 218 215 213 211 207 202 196 197 202 204 203 203 205 197 189 187 182 178 176 172 170 166 164 163 156 147 153 163 154 146 144 142 139 135 128 123 125 125 122 118 115 126 147 152 151 147 141 139
313 311 309 306 303 301 300 299 299 299 300 302 304 305 303 300 298 296 294 293 293 294 294 294 289 281 272 259 251 249 237 232 238 239 239 240 234 228 225 221 218 216 214 210 206 202 202 204 204 206 205 202 203 200 194 192 187 185 182 178 177 173 170 167 162 159 161 168 160 151 148 144 142 137 129 125 125 126 127 126 121 118 132 149 152 153 151 148
313 311 309 307 304 302 299 297 296 294 295 297 298 300 300 299 299 297 296 294 292 292 292 293 291 287 277 268 262 256 240 232 234 235 235 237 234 229 226 224 219 216 215 211 207 205 206 208 208 208 205 200 203 202 196 193 194 196 188 183 183 180 178 172 168 167 165 167 163 158 154 146 142 139 133 129 125 126 127 128 132 130 128 139 151 156 157 157
312 311 309 306 304 303 300 298 295 293 292 292 293 294 294 295 296 296 295 294 293 291 291 290 289 289 283 276 270 260 245 235 234 233 233 234 234 230 227 226 222 218 216 215 214 212 209 210 211 210 203 202 205 201 195 195 198 203 196 188 185 185 188 180 169 169 168 169 170 169 168 158 149 146 140 133 128 125 125 124 128 132 135 139 148 156 160 163
309 309 307 305 303 301 300 298 296 294 292 290 289 289 289 289 291 292 293 292 291 290 289 288 287 288 286 283 275 264 253 244 239 235 232 232 233 231 229 228 225 222 219 218 220 220 216 215 215 210 204 206 207 201 199 199 201 205 201 193 189 191 196 184 168 166 170 172 174 175 176 170 158 156 151 141 135 130 127 124 124 127 134 140 149 157 161 165
307 307 305 304 302 299 298 296 294 293 292 290 288 286 285 284 285 286 287 288 287 287 287 286 285 285 284 284 280 269 261 254 249 242 236 233 233 232 231 229 227 226 222 220 221 223 222 221 219 213 208 209 206 203 203 202 203 205 201 196 200 205 202 187 171 168 174 172 175 176 172 166 160 162 159 148 142 137 132 129 126 126 132 140 145 155 162 165
306 307 305 303 300 299 297 293 291 290 290 289 288 286 284 282 281 281 282 283 284 284 283 283 282 282 281 281 280 276 270 263 259 252 243 237 235 234 232 230 229 227 225 222 222 224 225 223 222 219 218 214 208 206 204 203 203 206 204 198 203 208 204 193 177 169 171 171 176 180 175 168 164 165 160 150 147 141 137 133 130 133 139 146 147 154 164 165
303 304 304 303 300 299 297 293 290 287 287 286 286 285 283 281 278 277 277 278 280 280 279 280 280 279 279 279 279 279 276 268 263 258 249 241 237 235 233 230 229 228 227 225 223 225 226 225 221 220 221 217 212 209 205 201 200 204 207 203 205 207 200 193 180 169 169 174 184 186 182 176 172 169 160 153 153 146 141 137 131 134 144 157 159 160 166 169
299 300 301 301 299 298 298 294 290 287 285 284 283 283 282 280 278 275 275 275 276 277 277 277 277 277 276 275 276 278 276 271 265 260 254 246 239 236 234 232 230 230 228 226 225 225 227 228 224 221 221 218 214 210 204 200 199 200 203 201 205 209 204 193 183 176 172 175 186 188 186 182 177 173 164 158 157 151 147 143 138 138 145 167 176 173 174 176
295 296 296 296 295 295 296 295 291 288 285 283 281 280 279 279 277 275 273 272 272 273 273 273 273 276 275 272 272 274 274 272 268 262 256 250 244 238 236 233 231 231 229 227 226 226 227 230 231 232 228 221 217 212 207 203 199 198 199 199 199 203 210 200 187 182 178 178 184 188 189 187 180 177 171 165 163 160 156 152 151 154 157 172 186 188 186 183
292 293 293 293 291 290 291 292 291 288 285 283 281 279 278 277 276 276 273 271 271 269 270 271 270 272 274 272 271 270 271 270 268 265 258 252 248 242 238 235 233 232 231 228 227 227 227 228 232 235 230 224 221 214 211 206 198 198 198 199 197 195 207 207 195 187 183 183 188 190 191 189 182 180 178 172 169 169 166 162 160 164 172 180 190 199 201 195
289 290 291 291 289 287 287 287 287 287 284 281 280 280 279 277 276 275 273 272 271 267 266 268 269 271 271 270 271 269 269 268 266 266 264 256 250 246 241 237 234 233 233 230 228 229 230 226 229 233 227 223 221 215 213 210 203 201 197 197 197 195 204 208 200 191 187 188 192 194 194 191 187 184 181 177 175 173 173 174 172 172 179 189 198 206 211 212
287 288 288 288 288 285 284 284 283 284 283 280 278 278 278 277 276 275 273 271 271 268 265 264 265 268 269 269 270 269 268 268 266 264 265 260 252 247 244 239 235 233 233 233 231 231 232 228 226 230 228 223 220 215 215 214 211 205 197 195 196 202 206 204 202 197 192 193 195 198 199 195 193 191 185 180 179 179 178 180 181 182 188 195 205 211 214 219
287 287 287 287 286 284 283 282 280 280 281 279 276 275 275 275 275 274 273 271 270 269 266 264 262 263 265 266 267 266 265 265 264 262 262 262 257 249 246 242 236 233 233 233 232 231 232 228 224 227 228 224 220 217 216 215 214 207 198 194 195 206 208 201 202 201 197 197 197 201 205 202 198 195 190 184 182 181 181 183 185 188 193 199 205 212 217 220
287 287 286 286 285 284 283 280 279 279 279 278 276 274 273 272 272 273 273 271 269 269 267 265 262 262 262 262 261 263 263 261 260 260 260 262 261 253 246 242 239 236 233 233 232 231 231 228 224 226 226 222 221 220 217 215 215 211 202 194 196 205 205 203 205 203 203 203 200 204 209 206 202 196 195 193 186 181 182 184 187 190 193 197 204 211 217 221
285 285 285 285 284 284 283 281 278 277 277 277 276 274 272 271 270 271 271 270 268 268 267 266 264 262 261 261 260 261 263 262 260 258 257 258 258 255 249 243 241 239 233 231 231 230 231 229 225 225 223 220 223 224 219 216 216 213 202 194 199 203 203 207 208 205 209 209 206 209 210 207 206 202 202 201 194 189 189 187 188 192 190 191 199 207 214 219
284 284 283 283 282 282 282 281 278 276 275 275 275 274 272 271 269 269 270 269 268 267 266 265 265 264 262 262 260 259 261 263 262 258 256 256 256 255 253 247 242 241 237 232 231 231 231 230 226 225 223 219 222 225 222 219 218 212 200 197 202 202 204 210 210 209 212 213 214 214 214 214 213 209 209 207 204 204 201 198 197 195 191 191 196 203 211 217
284 284 283 281 281 280 280 280 279 277 275 274 273 272 271 270 269 268 268 268 267 267 266 265 264 264 262 261 260 259 258 260 262 260 256 255 256 255 254 252 244 242 242 236 233 233 232 232 228 227 226 222 222 224 223 222 219 213 208 204 201 201 205 210 214 215 214 217 220 216 218 223 218 213 215 213 214 216 211 205 206 202 197 197 198 202 211 217
284 285 284 282 280 279 278 278 278 277 275 274 272 270 269 268 268 267 266 265 266 267 268 267 264 262 261 260 259 258 257 256 259 260 258 254 256 255 253 254 247 242 242 237 233 233 231 229 227 226 227 225 223 221 222 223 219 218 217 205 198 202 206 211 218 220 221 226 224 217 221 226 220 215 220 221 221 223 215 207 209 208 204 204 202 205 213 221
283 284 284 283 281 279 277 276 276 276 274 273 271 270 268 266 266 265 263 263 265 267 266 265 264 263 262 260 258 257 256 255 256 258 259 255 254 254 251 252 249 243 242 238 233 232 231 227 224 225 226 225 223 220 221 221 217 219 218 206 204 210 210 213 217 217 223 231 224 217 223 227 221 215 221 228 227 225 221 215 215 211 208 211 210 209 215 221
281 282 283 283 283 280 278 276 275 274 272 271 270 268 267 266 264 262 261 263 266 264 263 264 264 263 262 260 258 256 255 255 255 255 258 257 253 253 252 251 249 247 244 241 237 235 234 229 224 224 225 224 222 220 221 220 216 218 220 216 219 221 217 216 217 215 220 228 223 219 225 229 224 215 219 228 226 225 225 220 221 218 212 216 217 216 219 221
279 279 280 281 281 280 279 277 275 273 271 270 268 267 266 264 262 261 262 263 262 261 261 262 263 262 260 260 258 256 255 255 255 254 255 257 255 253 252 251 250 250 250 247 242 239 238 233 226 224 225 224 222 221 221 219 216 218 219 221 224 224 222 222 220 219 222 227 225 222 226 231 229 217 216 225 227 228 223 212 216 220 217 217 219 222 228 233
278 278 278 279 279 278 277 276 274 272 271 269 267 265 263 262 262 262 262 261 260 259 260 260 261 261 260 260 259 256 255 254 254 254 254 254 255 253 252 250 248 248 248 248 244 241 241 236 229 225 225 225 224 222 221 218 217 218 217 221 223 222 223 225 224 223 225 229 229 227 226 229 230 222 214 220 224 226 220 210 214 221 222 221 222 230 241 255
277 276 276 277 277 276 275 274 272 271 270 268 265 263 261 260 262 263 261 260 259 258 259 259 259 259 259 259 259 257 256 254 252 254 255 254 254 254 253 252 250 247 245 245 244 241 241 239 233 228 225 225 225 223 222 220 220 220 219 222 225 223 222 225 227 228 229 231 230 231 229 228 231 225 211 209 212 213 212 209 215 218 216 219 224 235 255 274
275 275 275 275 275 275 273 271 270 269 268 267 265 263 261 261 261 262 260 258 257 256 256 257 257 257 258 258 258 257 256 256 253 252 254 254 253 253 253 253 251 248 244 245 245 243 241 239 237 232 227 227 226 223 221 220 221 221 220 223 226 226 225 228 231 231 234 236 234 236 235 229 231 228 209 203 204 202 205 207 212 213 210 217 226 239 262 278
274 273 273 273 273 272 271 269 267 266 265 265 264 263 263 263 261 259 258 256 254 254 254 255 255 255 256 257 258 258 256 256 254 251 252 254 253 251 251 251 249 246 242 243 245 246 243 239 236 232 227 227 227 224 221 220 221 221 220 223 226 227 226 229 234 233 235 237 233 238 240 232 232 231 213 204 203 199 203 206 207 209 210 220 232 245 265 273
272 272 271 271 270 270 268 267 265 263 263 262 263 263 263 262 259 257 256 255 253 253 253 253 254 253 254 255 256 257 255 255 254 251 250 251 251 250 250 251 249 246 243 241 241 243 242 240 239 235 228 227 227 225 223 222 222 222 222 223 225 227 225 225 232 234 233 234 231 236 244 239 233 230 213 204 205 201 203 206 207 210 214 221 232 249 261 256
272 270 269 268 268 266 265 263 262 260 260 260 261 262 262 260 258 256 255 253 251 251 251 251 251 251 251 252 253 254 253 253 253 251 249 249 251 250 250 251 249 245 243 241 239 240 239 237 240 239 230 227 227 226 224 223 222 223 224 224 224 227 227 224 225 228 230 236 236 236 244 245 234 225 210 204 205 204 204 206 210 214 216 219 225 242 249 241
273 269 266 265 265 263 262 260 259 257 257 258 259 260 260 260 258 254 252 250 248 248 248 248 249 249 248 248 249 250 250 250 251 250 248 247 249 249 247 248 248 244 242 241 239 240 241 235 237 239 232 226 227 226 225 224 222 220 223 225 223 227 230 228 228 230 229 235 240 238 241 245 237 224 212 204 202 203 203 204 209 214 214 213 217 224 229 230
274 269 265 263 262 260 259 257 256 255 255 256 257 257 257 257 255 252 248 246 245 245 245 245 246 246 246 245 245 248 248 247 249 250 248 246 247 248 247 245 245 244 240 239 238 239 242 237 234 239 237 229 227 227 226 226 224 220 221 224 223 225 228 229 231 235 234 235 239 240 240 242 242 233 216 204 204 204 204 204 207 212 214 213 213 211 212 223
274 269 265 263 260 258 257 255 255 254 254 254 254 254 253 253 253 250 246 244 243 243 243 243 243 244 244 243 243 245 246 245 247 248 247 246 245 246 246 243 241 242 239 238 237 237 240 238 231 234 238 234 230 229 228 228 228 226 224 224 224 225 227 228 230 233 235 234 234 238 240 237 239 238 217 202 206 206 207 214 213 210 215 217 213 209 211 220
272 268 265 262 259 257 255 254 253 253 252 252 251 251 251 251 251 249 245 242 241 241 241 241 242 242 242 242 242 242 243 242 243 244 245 245 243 241 244 242 238 238 237 236 237 236 237 239 233 232 239 239 234 231 230 228 229 229 227 226 225 226 227 228 230 230 232 235 231 234 243 238 235 239 223 204 209 211 214 223 220 211 214 218 214 211 217 224
270 266 263 260 257 255 254 253 252 252 251 251 250 249 249 248 248 246 244 241 240 240 240 240 241 241 241 241 241 240 241 241 242 243 243 244 242 239 240 241 237 235 234 233 233 233 232 236 236 233 237 240 235 232 231 230 228 227 227 226 225 227 228 229 232 232 233 237 233 232 239 238 234 237 229 211 212 218 221 225 218 210 210 213 213 214 223 232
266 262 258 256 253 252 251 250 250 249 249 248 248 247 247 247 245 244 243 241 239 239 239 239 239 239 239 240 239 238 238 238 239 240 241 241 241 237 235 237 236 233 231 229 229 232 232 235 237 234 234 237 234 230 231 230 228 226 228 228 225 225 228 229 232 233 233 236 236 235 238 239 238 239 234 224 222 222 223 226 220 212 210 210 211 216 227 236
262 257 253 252 250 248 248 248 247 247 247 246 246 246 246 246 244 242 240 239 238 237 237 237 237 238 238 238 237 235 234 235 236 236 237 238 238 235 232 233 234 232 230 228 229 233 233 233 236 235 234 238 237 235 235 234 232 230 230 231 229 226 226 228 230 232 233 234 235 236 238 240 241 243 240 236 234 225 218 223 225 218 212 212 212 216 225 232
258 253 250 249 248 246 246 246 245 244 244 244 243 243 242 242 241 239 236 235 235 235 235 235 235 236 236 236 235 233 231 232 233 233 233 235 235 232 230 230 231 231 231 231 233 236 233 232 235 235 234 238 239 240 242 241 238 235 233 233 232 229 227 227 229 230 231 234 235 235 238 239 238 241 242 239 232 222 215 220 225 223 217 214 213 215 223 230
256 252 249 247 247 247 245 245 244 242 241 241 240 238 236 236 236 236 234 232 232 233 234 233 234 234 235 235 234 232 229 228 229 230 230 231 231 228 227 228 228 229 230 231 233 235 235 237 239 239 237 237 238 239 241 243 241 239 238 236 235 233 230 228 230 230 229 233 236 236 237 238 236 236 239 237 230 223 221 222 223 224 222 217 214 215 220 229
255 252 248 246 246 247 247 245 245 243 241 240 238 235 233 231 230 231 231 229 228 230 231 231 232 232 233 233 232 231 228 225 225 226 226 226 227 225 225 226 226 228 228 229 231 233 235 239 241 241 241 240 239 239 239 242 243 241 240 239 238 238 235 232 232 232 231 232 236 237 238 239 238 235 235 237 235 230 227 225 224 224 221 215 213 215 218 226
255 252 250 247 245 247 248 247 245 244 242 240 237 234 231 228 226 226 227 226 225 226 228 229 230 231 231 231 230 228 226 223 222 223 224 224 223 222 221 222 224 227 229 230 231 233 235 237 238 240 242 240 239 239 238 240 243 243 241 241 241 241 240 238 236 235 235 235 237 239 240 241 240 238 236 237 240 238 230 224 226 226 219 211 208 214 223 226
256 253 251 249 246 245 247 248 246 243 241 240 237 233 230 227 225 224 224 224 224 224 225 226 227 228 227 226 227 226 225 223 221 221 222 222 220 218 217 218 219 222 226 229 232 232 234 236 236 239 241 240 239 239 238 237 239 242 242 241 240 241 241 241 240 237 236 237 238 240 243 244 242 240 238 236 239 241 235 226 227 229 226 218 213 217 226 229
257 255 252 250 248 246 246 247 247 244 241 239 237 234 230 228 226 224 223 223 224 222 221 221 221 223 223 224 225 224 223 222 220 220 221 221 219 216 215 215 216 218 221 225 228 230 232 235 235 238 241 242 240 240 241 242 240 240 241 240 238 238 238 239 240 239 237 237 238 239 241 243 243 242 240 237 237 240 238 231 228 230 229 224 222 224 227 231
258 256 253 250 248 246 246 246 247 245 242 239 237 235 232 229 228 225 223 222 222 220 220 219 220 221 222 222 222 222 222 221 219 219 220 220 218 216 215 214 216 218 220 224 227 229 232 234 234 236 239 241 240 239 241 243 241 240 240 239 238 239 239 238 239 241 239 238 238 239 239 242 243 242 241 238 236 238 238 233 230 231 228 226 226 228 230 232
Height
5898 5898 5898 5897 5896 5896 5895 5895 5895 5894 5894 5894 5894 5893 5894 5894 5894 5895 5896 5897 5898 5898 5899 5899 5900 5901 5901 5901 5901 5901 5900 5900 5901 5900 5900 5901 5902 5902 5903 5903 5904 5905 5907 5909 5910 5912 5913 5914 5915 5916 5916 5917 5918 5918 5919 5919 5918 5918 5918 5918 5920 5920 5920 5921 5920 5920 5920 5920 5920 5919 5919 5919 5919 5918 5918 5917 5917 5916 5916 5916 5916 5916 5917 5917 5917 5918 5917 5917
5897 5897 5897 5896 5896 5895 5895 5894 5894 5893 5893 5893 5892 5892 5892 5892 5892 5893 5894 5895 5896 5896 5897 5898 5898 5899 5900 5900 5900 5900 5899 5899 5899 5900 5900 5900 5901 5901 5902 5903 5904 5904 5906 5907 5909 5911 5912 5913 5914 5915 5916 5916 5917 5918 5919 5919 5918 5918 5917 5918 5920 5920 5920 5920 5920 5920 5920 5920 5920 5920 5919 5919 5919 5919 5919 5918 5917 5917 5916 5916 5916 5916 5917 5917 5917 5918 5918 5917
5896 5896 5895 5895 5894 5894 5893 5893 5893 5892 5892 5892 5891 5891 5891 5891 5891 5891 5892 5893 5893 5894 5895 5896 5897 5897 5898 5899 5899 5899 5898 5898 5898 5899 5899 5900 5900 5901 5901 5902 5903 5904 5905 5906 5907 5909 5910 5912 5913 5914 5915 5916 5917 5918 5919 5919 5919 5918 5918 5919 5920 5920 5920 5920 5920 5920 5920 5919 5920 5920 5919 5919 5918 5919 5919 5918 5918 5917 5917 5917 5916 5917 5917 5917 5917 5917 5918 5917
5895 5895 5894 5894 5893 5893 5892 5892 5891 5891 5891 5891 5891 5890 5890 5889 5889 5889 5890 5890 5891 5892 5893 5893 5894 5895 5896 5897 5897 5897 5897 5896 5897 5898 5898 5899 5899 5899 5900 5901 5901 5903 5904 5905 5906 5908 5909 5911 5912 5914 5915 5916 5917 5918 5919 5919 5919 5919 5919 5920 5920 5920 5920 5920 5920 5920 5920 5919 5919 5920 5919 5919 5918 5918 5919 5918 5918 5917 5917 5917 5917 5917 5917 5917 5917 5917 5917 5917
5894 5894 5893 5893 5892 5892 5891 5890 5890 5890 5890 5890 5889 5889 5888 5888 5888 5888 5888 5888 5889 5889 5890 5891 5892 5893 5894 5895 5895 5895 5895 5895 5895 5896 5897 5897 5898 5898 5899 5899 5900 5901 5902 5904 5905 5907 5908 5910 5912 5913 5915 5916 5917 5918 5918 5918 5919 5919 5919 5919 5920 5920 5920 5920 5920 5920 5920 5919 5919 5919 5919 5919 5918 5918 5918 5918 5918 5918 5918 5917 5917 5917 5917 5916 5916 5916 5917 5917
5893 5893 5892 5892 5891 5891 5890 5889 5889 5888 5888 5888 5888 5888 5887 5887 5887 5886 5886 5886 5887 5887 5888 5889 5890 5891 5892 5892 5893 5893 5893 5893 5894 5895 5896 5897 5897 5897 5898 5898 5899 5900 5901 5903 5904 5906 5907 5909 5911 5913 5915 5916 5917 5917 5918 5918 5919 5919 5919 5919 5919 5920 5920 5920 5920 5920 5919 5919 5919 5919 5919 5918 5918 5918 5918 5918 5918 5918 5918 5917 5917 5917 5917 5917 5916 5916 5916 5917
5892 5891 5891 5891 5890 5890 5889 5888 5888 5887 5887 5887 5887 5886 5886 5886 5886 5885 5884 5884 5885 5886 5886 5887 5887 5888 5889 5890 5891 5891 5890 5890 5892 5893 5894 5895 5896 5897 5897 5898 5898 5899 5900 5902 5903 5905 5907 5908 5910 5912 5914 5915 5916 5916 5917 5918 5918 5918 5919 5919 5919 5919 5919 5919 5919 5919 5919 5919 5919 5919 5918 5918 5918 5918 5918 5918 5918 5917 5917 5917 5917 5917 5916 5917 5917 5916 5916 5917
5890 5890 5889 5889 5889 5888 5888 5887 5887 5886 5886 5886 5886 5885 5885 5884 5884 5884 5883 5883 5883 5884 5884 5885 5885 5886 5887 5888 5888 5888 5888 5889 5891 5892 5892 5894 5895 5896 5897 5897 5898 5899 5900 5901 5903 5904 5906 5908 5910 5911 5912 5914 5915 5916 5916 5917 5918 5918 5918 5918 5918 5918 5919 5919 5919 5919 5919 5919 5919 5919 5918 5918 5918 5918 5918 5917 5918 5918 5917 5917 5917 5917 5916 5917 5917 5917 5916 5917
5889 5888 5888 5887 5887 5887 5886 5886 5886 5885 5885 5885 5885 5884 5883 5883 5883 5882 5882 5882 5882 5882 5882 5883 5883 5884 5885 5885 5885 5885 5886 5888 5889 5889 5890 5892 5894 5894 5896 5896 5897 5898 5899 5900 5901 5902 5904 5906 5908 5910 5911 5913 5913 5915 5915 5916 5917 5917 5917 5917 5918 5918 5918 5918 5918 5918 5918 5918 5919 5919 5919 5918 5918 5918 5918 5917 5918 5918 5917 5917 5917 5917 5917 5917 5917 5917 5917 5917
5887 5887 5886 5886 5885 5885 5885 5884 5884 5884 5884 5883 5883 5883 5882 5882 5881 5881 5880 5880 5880 5880 5881 5881 5882 5882 5882 5883 5882 5882 5885 5887 5887 5887 5888 5890 5892 5893 5894 5895 5896 5897 5898 5899 5900 5902 5904 5906 5907 5908 5909 5911 5912 5913 5914 5915 5916 5916 5916 5917 5917 5918 5917 5917 5917 5917 5918 5919 5919 5919 5919 5918 5918 5918 5918 5918 5918 5918 5918 5917 5917 5917 5918 5917 5918 5918 5918 5918
5885 5885 5884 5884 5884 5883 5883 5882 5882 5882 5882 5882 5882 5881 5881 5881 5880 5880 5879 5879 5879 5879 5879 5879 5880 5880 5880 5880 5880 5880 5884 5886 5885 5885 5886 5888 5891 5892 5893 5894 5894 5895 5896 5897 5899 5901 5903 5903 5904 5905 5907 5908 5910 5912 5913 5914 5915 5915 5916 5916 5917 5917 5917 5917 5917 5917 5918 5919 5919 5920 5920 5919 5919 5918 5918 5918 5918 5918 5918 5918 5918 5918 5918 5918 5918 5919 5919 5919
5883 5883 5883 5882 5882 5881 5881 5881 5880 5880 5880 5880 5880 5880 5879 5879 5879 5879 5878 5878 5878 5878 5878 5878 5878 5878 5878 5878 5878 5879 5883 5883 5882 5883 5884 5886 5888 5889 5891 5892 5892 5893 5894 5896 5898 5899 5900 5900 5901 5903 5905 5907 5909 5911 5912 5913 5914 5914 5915 5915 5916 5916 5916 5916 5917 5917 5918 5919 5919 5920 5920 5920 5919 5919 5919 5918 5918 5918 5918 5919 5919 5919 5919 5919 5919 5919 5920 5920
5882 5881 5880 5880 5880 5879 5879 5879 5878 5878 5878 5878 5878 5878 5877 5877 5877 5877 5877 5876 5876 5876 5876 5876 5876 5876 5876 5876 5877 5878 5879 5879 5879 5880 5881 5883 5885 5887 5888 5889 5890 5891 5892 5894 5895 5896 5897 5898 5900 5902 5904 5906 5908 5909 5911 5912 5913 5914 5914 5915 5915 5916 5916 5916 5916 5917 5918 5918 5919 5919 5920 5920 5920 5920 5919 5919 5918 5919 5919 5919 5919 5919 5919 5919 5919 5919 5920 5920
5880 5879 5878 5878 5877 5877 5877 5877 5876 5876 5876 5876 5876 5876 5875 5875 5875 5875 5875 5875 5875 5875 5875 5874 5874 5874 5874 5874 5876 5876 5876 5876 5876 5877 5879 5880 5882 5884 5886 5887 5888 5889 5890 5892 5892 5893 5894 5896 5897 5899 5902 5905 5905 5907 5910 5911 5911 5912 5913 5913 5914 5915 5916 5916 5916 5917 5918 5918 5919 5919 5919 5920 5920 5920 5920 5919 5918 5919 5919 5919 5919 5919 5919 5919 5919 5920 5920 5920
5878 5877 5876 5876 5875 5875 5875 5874 5874 5874 5873 5873 5873 5873 5873 5873 5873 5873 5873 5873 5873 5873 5873 5873 5872 5872 5872 5872 5874 5874 5874 5874 5873 5875 5876 5878 5879 5881 5883 5884 5886 5887 5888 5890 5891 5892 5894 5894 5895 5898 5901 5902 5903 5906 5908 5909 5910 5911 5912 5913 5914 5914 5915 5915 5915 5917 5918 5918 5918 5918 5919 5919 5920 5920 5920 5919 5919 5919 5919 5919 5919 5920 5920 5920 5920 5920 5920 5921
5875 5875 5874 5873 5873 5872 5872 5872 5871 5871 5871 5871 5871 5871 5871 5871 5871 5871 5871 5870 5870 5870 5871 5871 5870 5871 5870 5870 5871 5872 5873 5873 5872 5873 5875 5876 5877 5878 5880 5881 5883 5885 5886 5888 5889 5891 5892 5893 5895 5897 5898 5899 5902 5905 5906 5907 5908 5909 5911 5913 5914 5914 5914 5915 5915 5916 5917 5917 5918 5918 5918 5919 5919 5920 5920 5919 5918 5918 5919 5919 5919 5920 5920 5920 5920 5920 5920 5921
5872 5872 5871 5870 5870 5870 5869 5869 5869 5868 5868 5868 5868 5868 5868 5868 5868 5868 5868 5868 5868 5868 5868 5868 5868 5868 5868 5868 5868 5870 5871 5871 5871 5871 5873 5874 5874 5875 5877 5879 5880 5882 5884 5886 5887 5888 5890 5891 5893 5895 5896 5898 5900 5902 5903 5905 5907 5909 5910 5912 5914 5914 5914 5915 5914 5915 5916 5917 5917 5917 5917 5918 5919 5919 5919 5918 5918 5918 5918 5919 5919 5920 5920 5920 5920 5920 5921 5921
5869 5868 5868 5867 5866 5866 5866 5866 5866 5865 5865 5865 5865 5865 5865 5865 5865 5865 5866 5866 5865 5865 5865 5866 5866 5866 5866 5866 5866 5867 5869 5869 5869 5869 5870 5871 5872 5873 5874 5876 5877 5879 5881 5883 5885 5887 5888 5889 5891 5893 5894 5895 5897 5899 5901 5904 5906 5908 5910 5911 5912 5913 5913 5913 5914 5914 5915 5916 5917 5916 5917 5917 5918 5918 5917 5917 5918 5918 5918 5918 5919 5919 5920 5920 5921 5921 5921 5921
5866 5865 5864 5863 5862 5863 5863 5863 5862 5862 5862 5861 5861 5861 5861 5861 5862 5862 5863 5863 5863 5862 5862 5863 5863 5863 5863 5863 5864 5865 5866 5866 5866 5866 5867 5868 5869 5870 5871 5873 5875 5876 5878 5880 5882 5884 5886 5886 5887 5888 5889 5892 5895 5897 5900 5903 5906 5908 5909 5910 5911 5912 5912 5912 5912 5912 5913 5915 5916 5916 5916 5916 5917 5917 5916 5916 5917 5917 5917 5917 5918 5919 5919 5920 5921 5921 5921 5921
5863 5862 5861 5860 5859 5859 5859 5859 5859 5859 5858 5858 5858 5858 5858 5858 5858 5859 5859 5859 5860 5860 5859 5860 5861 5860 5860 5860 5861 5862 5863 5863 5863 5863 5864 5865 5866 5867 5868 5870 5872 5873 5875 5877 5879 5881 5883 5883 5884 5885 5888 5892 5895 5897 5900 5902 5904 5905 5907 5908 5909 5911 5912 5911 5911 5911 5911 5913 5914 5914 5914 5915 5916 5916 5916 5916 5916 5916 5916 5916 5917 5918 5919 5920 5921 5921 5921 5922
5859 5858 5858 5857 5856 5855 5856 5855 5855 5855 5855 5855 5854 5854 5854 5854 5854 5855 5856 5856 5856 5856 5856 5857 5857 5858 5857 5857 5858 5859 5860 5860 5860 5860 5861 5862 5863 5864 5865 5867 5869 5870 5872 5874 5875 5877 5878 5880 5883 5885 5888 5891 5893 5896 5898 5900 5902 5903 5905 5907 5908 5910 5912 5911 5909 5909 5910 5911 5912 5913 5914 5914 5914 5915 5915 5915 5915 5915 5915 5915 5916 5917 5918 5919 5920 5921 5921 5922
5855 5854 5854 5853 5852 5851 5852 5852 5851 5851 5851 5851 5851 5850 5850 5851 5851 5851 5852 5852 5852 5852 5853 5854 5854 5855 5854 5854 5855 5856 5856 5856 5857 5857 5858 5860 5860 5861 5862 5864 5866 5868 5869 5869 5871 5873 5874 5878 5881 5883 5887 5889 5890 5894 5896 5898 5900 5901 5903 5904 5906 5908 5909 5908 5907 5908 5908 5910 5911 5912 5913 5913 5913 5913 5913 5913 5914 5914 5914 5915 5915 5916 5917 5918 5919 5920 5921 5921
5850 5850 5849 5849 5848 5847 5847 5847 5847 5847 5847 5847 5847 5847 5847 5847 5847 5847 5848 5849 5849 5848 5849 5850 5851 5851 5851 5851 5852 5852 5853 5853 5853 5854 5855 5856 5857 5858 5859 5860 5862 5864 5864 5865 5869 5870 5871 5876 5880 5881 5883 5885 5887 5890 5893 5894 5896 5898 5900 5901 5904 5905 5905 5905 5906 5907 5907 5908 5909 5911 5912 5912 5911 5912 5912 5912 5913 5913 5913 5914 5914 5915 5916 5917 5918 5919 5920 5920
5845 5845 5845 5844 5843 5842 5842 5843 5843 5843 5843 5843 5843 5843 5843 5843 5843 5843 5843 5845 5845 5845 5845 5846 5847 5848 5847 5848 5849 5849 5850 5850 5850 5851 5852 5853 5854 5855 5856 5858 5858 5858 5860 5863 5866 5868 5869 5873 5877 5877 5879 5882 5885 5887 5889 5891 5893 5895 5897 5898 5901 5903 5903 5904 5905 5905 5906 5906 5908 5909 5910 5910 5910 5911 5911 5911 5911 5912 5912 5913 5913 5913 5914 5915 5917 5918 5919 5919
5840 5840 5840 5840 5838 5837 5837 5837 5838 5839 5839 5839 5839 5839 5839 5839 5839 5840 5839 5840 5841 5841 5841 5842 5843 5844 5844 5844 5845 5846 5847 5847 5846 5848 5849 5850 5850 5851 5852 5853 5854 5854 5857 5860 5862 5864 5865 5868 5872 5873 5876 5880 5881 5883 5885 5888 5891 5893 5894 5897 5899 5901 5902 5903 5902 5903 5904 5905 5906 5907 5907 5908 5909 5909 5909 5909 5910 5910 5911 5912 5912 5912 5913 5914 5915 5916 5917 5918
5834 5835 5835 5835 5834 5833 5832 5832 5833 5833 5834 5834 5835 5834 5834 5835 5835 5835 5835 5835 5837 5838 5837 5837 5838 5839 5840 5840 5842 5842 5842 5842 5843 5844 5846 5846 5846 5847 5848 5849 5851 5851 5853 5856 5857 5859 5860 5863 5868 5870 5873 5877 5877 5879 5882 5886 5888 5890 5893 5897 5897 5899 5900 5900 5899 5901 5902 5903 5904 5904 5904 5906 5907 5907 5908 5908 5908 5908 5909 5910 5910 5911 5912 5912 5914 5915 5915 5916
5829 5829 5830 5829 5829 5828 5827 5826 5827 5827 5828 5829 5830 5830 5830 5830 5830 5831 5830 5830 5832 5834 5833 5833 5833 5834 5835 5835 5837 5838 5837 5838 5839 5840 5842 5842 5842 5843 5844 5846 5847 5847 5848 5851 5852 5853 5855 5859 5865 5868 5869 5871 5872 5875 5880 5883 5885 5888 5893 5895 5895 5896 5898 5897 5898 5899 5900 5901 5901 5902 5903 5903 5903 5904 5905 5906 5906 5906 5907 5908 5909 5909 5910 5911 5912 5913 5914 5914
5823 5823 5824 5824 5824 5823 5822 5821 5821 5822 5823 5824 5824 5824 5825 5825 5825 5826 5826 5824 5827 5829 5829 5830 5830 5830 5830 5831 5832 5833 5833 5834 5834 5835 5837 5838 5838 5840 5840 5842 5844 5843 5844 5848 5849 5850 5853 5857 5862 5865 5865 5867 5869 5873 5877 5880 5883 5887 5890 5891 5892 5894 5895 5896 5896 5896 5898 5898 5897 5899 5900 5899 5900 5902 5902 5903 5904 5905 5906 5907 5908 5909 5909 5910 5910 5911 5912 5912
5818 5817 5818 5818 5818 5818 5817 5816 5815 5816 5817 5818 5818 5818 5819 5820 5820 5821 5820 5819 5822 5825 5825 5825 5826 5825 5826 5827 5827 5828 5829 5830 5829 5830 5833 5834 5834 5836 5837 5837 5839 5840 5840 5843 5845 5844 5848 5853 5857 5859 5860 5862 5867 5871 5874 5876 5880 5884 5885 5887 5889 5891 5892 5894 5893 5894 5896 5894 5893 5897 5897 5896 5899 5900 5900 5901 5902 5904 5906 5906 5907 5908 5908 5908 5908 5909 5910 5910
5811 5811 5812 5812 5812 5812 5811 5811 5810 5810 5810 5811 5812 5812 5813 5814 5815 5815 5813 5814 5819 5821 5820 5820 5821 5821 5821 5821 5823 5823 5824 5825 5826 5826 5827 5829 5831 5831 5832 5833 5835 5835 5836 5838 5839 5838 5841 5846 5850 5853 5855 5858 5864 5868 5868 5871 5877 5880 5881 5884 5887 5887 5888 5889 5890 5891 5892 5889 5889 5893 5894 5894 5896 5898 5898 5899 5901 5903 5904 5904 5905 5905 5906 5907 5907 5907 5908 5908
5805 5805 5805 5806 5805 5805 5805 5804 5805 5805 5804 5805 5806 5806 5807 5807 5809 5807 5806 5811 5816 5815 5814 5815 5816 5817 5816 5816 5817 5818 5820 5820 5821 5822 5822 5824 5826 5827 5828 5829 5830 5831 5831 5833 5834 5834 5836 5841 5845 5848 5850 5854 5859 5862 5863 5867 5873 5874 5876 5881 5883 5883 5883 5884 5885 5885 5884 5883 5885 5890 5892 5891 5891 5895 5897 5897 5899 5901 5901 5902 5903 5903 5904 5905 5906 5905 5905 5906
5797 5797 5797 5798 5798 5798 5797 5797 5798 5798 5797 5798 5799 5800 5800 5800 5800 5800 5802 5809 5810 5808 5809 5810 5810 5811 5811 5811 5812 5813 5815 5816 5817 5818 5818 5819 5821 5823 5824 5824 5825 5827 5827 5829 5831 5831 5832 5837 5841 5844 5846 5849 5852 5855 5859 5863 5867 5868 5872 5875 5876 5877 5878 5878 5879 5878 5877 5879 5884 5888 5889 5886 5887 5893 5895 5894 5897 5899 5899 5901 5901 5901 5903 5903 5904 5904 5904 5904
5790 5790 5789 5790 5791 5790 5790 5790 5790 5789 5791 5792 5791 5792 5793 5792 5792 5795 5799 5804 5804 5803 5803 5803 5804 5805 5806 5807 5807 5808 5810 5811 5812 5813 5814 5815 5816 5817 5819 5820 5821 5822 5823 5824 5826 5827 5828 5830 5834 5838 5841 5844 5846 5850 5854 5857 5859 5862 5866 5868 5869 5873 5873 5872 5874 5874 5875 5878 5882 5884 5884 5882 5884 5890 5892 5893 5896 5897 5897 5898 5899 5900 5901 5902 5903 5903 5903 5903
5781 5781 5781 5781 5782 5782 5781 5782 5782 5781 5782 5783 5783 5784 5784 5783 5786 5790 5794 5797 5798 5798 5797 5796 5797 5799 5800 5801 5802 5803 5805 5805 5806 5808 5809 5810 5811 5812 5814 5815 5817 5818 5819 5819 5820 5822 5822 5824 5828 5833 5836 5839 5841 5845 5850 5854 5856 5859 5864 5865 5865 5868 5869 5870 5872 5873 5874 5877 5880 5879 5877 5878 5882 5886 5891 5893 5893 5894 5895 5896 5897 5898 5899 5900 5901 5901 5902 5903
5772 5772 5773 5773 5773 5773 5773 5773 5773 5772 5773 5774 5775 5775 5774 5776 5781 5784 5786 5789 5792 5792 5790 5789 5790 5791 5793 5795 5796 5798 5799 5799 5801 5803 5803 5805 5806 5807 5808 5810 5812 5813 5814 5814 5815 5816 5817 5820 5824 5828 5833 5835 5836 5841 5845 5849 5851 5856 5861 5861 5859 5863 5868 5870 5870 5872 5875 5876 5876 5873 5871 5876 5881 5883 5888 5891 5890 5891 5892 5893 5895 5896 5897 5898 5899 5900 5901 5901
5762 5762 5762 5763 5763 5763 5763 5763 5763 5762 5763 5764 5764 5765 5767 5772 5775 5776 5777 5781 5784 5784 5783 5782 5783 5785 5787 5789 5790 5793 5794 5794 5795 5797 5798 5800 5801 5802 5803 5804 5806 5808 5809 5809 5810 5811 5814 5816 5817 5821 5827 5829 5832 5837 5840 5842 5846 5851 5853 5853 5856 5862 5867 5867 5867 5871 5873 5870 5870 5869 5867 5873 5878 5879 5885 5888 5887 5888 5889 5890 5892 5893 5894 5896 5897 5899 5899 5900
5751 5751 5751 5752 5753 5753 5753 5753 5753 5752 5753 5753 5754 5757 5762 5765 5766 5766 5769 5773 5776 5776 5776 5775 5777 5779 5780 5782 5785 5786 5788 5788 5789 5792 5793 5794 5795 5797 5798 5799 5801 5803 5804 5805 5806 5807 5810 5812 5811 5816 5822 5823 5827 5832 5835 5837 5841 5844 5847 5851 5857 5858 5858 5862 5865 5866 5865 5863 5865 5866 5865 5869 5873 5875 5881 5884 5883 5885 5887 5888 5890 5891 5892 5894 5895 5897 5898 5899
5740 5740 5739 5740 5742 5742 5742 5742 5742 5741 5741 5742 5744 5750 5753 5754 5757 5759 5761 5764 5767 5767 5767 5768 5770 5772 5773 5776 5778 5778 5781 5783 5783 5785 5787 5788 5790 5792 5793 5794 5796 5798 5799 5800 5802 5801 5804 5807 5807 5810 5816 5819 5821 5825 5827 5830 5835 5840 5844 5848 5851 5849 5849 5854 5857 5858 5860 5859 5860 5864 5864 5864 5868 5872 5877 5880 5881 5883 5885 5886 5887 5888 5890 5891 5894 5895 5896 5897
5728 5727 5726 5728 5729 5729 5730 5730 5730 5730 5729 5731 5736 5740 5743 5745 5748 5751 5752 5754 5756 5757 5759 5761 5762 5764 5766 5769 5770 5770 5775 5777 5776 5778 5782 5783 5784 5786 5788 5790 5791 5793 5794 5795 5797 5797 5799 5803 5804 5803 5809 5813 5814 5816 5819 5823 5829 5835 5837 5838 5843 5844 5846 5849 5850 5851 5855 5856 5856 5860 5861 5859 5863 5869 5874 5876 5879 5880 5881 5882 5884 5885 5887 5889 5891 5892 5894 5894
5716 5714 5713 5715 5716 5715 5717 5718 5718 5718 5718 5721 5727 5730 5733 5735 5737 5741 5743 5744 5745 5747 5750 5752 5754 5755 5758 5761 5762 5763 5768 5771 5770 5773 5776 5777 5778 5780 5782 5785 5786 5787 5789 5790 5792 5793 5794 5798 5801 5799 5801 5805 5806 5809 5815 5819 5823 5826 5826 5829 5836 5838 5840 5845 5846 5846 5850 5852 5854 5856 5856 5857 5861 5865 5870 5872 5874 5876 5877 5879 5881 5883 5884 5886 5887 5889 5890 5892
5701 5700 5700 5703 5702 5702 5704 5704 5705 5707 5707 5712 5716 5718 5720 5723 5726 5731 5734 5734 5735 5737 5740 5743 5745 5748 5750 5753 5755 5756 5760 5763 5764 5766 5769 5770 5774 5775 5777 5779 5781 5782 5784 5785 5787 5789 5789 5792 5796 5795 5794 5799 5804 5807 5813 5816 5818 5820 5821 5825 5830 5832 5835 5839 5839 5841 5845 5846 5850 5851 5850 5855 5860 5861 5865 5870 5871 5873 5876 5877 5879 5881 5882 5883 5884 5885 5887 5889
5686 5686 5686 5689 5689 5689 5690 5691 5693 5695 5696 5701 5705 5706 5709 5712 5716 5720 5723 5724 5725 5727 5730 5733 5737 5740 5742 5745 5748 5749 5752 5755 5757 5759 5762 5764 5768 5770 5770 5773 5776 5777 5779 5780 5781 5784 5785 5786 5789 5791 5792 5796 5801 5804 5806 5810 5813 5815 5817 5821 5825 5827 5830 5832 5831 5837 5842 5841 5845 5848 5845 5849 5857 5857 5859 5865 5867 5869 5872 5874 5876 5877 5879 5880 5880 5882 5885 5886
5671 5672 5672 5673 5676 5676 5676 5678 5681 5682 5684 5689 5693 5694 5697 5701 5705 5708 5711 5714 5716 5718 5721 5724 5728 5732 5734 5737 5740 5742 5745 5748 5751 5753 5755 5758 5761 5764 5766 5768 5770 5772 5773 5775 5777 5778 5780 5780 5783 5788 5790 5791 5796 5799 5800 5802 5806 5808 5809 5814 5818 5821 5824 5828 5829 5835 5839 5836 5839 5843 5839 5842 5851 5852 5854 5859 5863 5866 5868 5869 5872 5873 5875 5876 5877 5880 5882 5883
5656 5658 5657 5658 5661 5663 5662 5665 5668 5668 5671 5676 5678 5681 5685 5689 5694 5697 5700 5704 5707 5709 5712 5715 5719 5723 5726 5729 5732 5735 5738 5740 5743 5746 5749 5751 5755 5759 5761 5762 5764 5766 5768 5770 5771 5772 5774 5776 5779 5783 5785 5786 5789 5792 5792 5794 5797 5801 5803 5807 5811 5816 5820 5823 5826 5830 5831 5829 5834 5836 5832 5837 5845 5847 5850 5856 5860 5863 5865 5866 5868 5870 5871 5872 5874 5877 5879 5880
5641 5643 5644 5643 5646 5649 5649 5651 5653 5655 5658 5662 5665 5670 5674 5678 5682 5687 5691 5694 5697 5700 5702 5706 5710 5714 5717 5721 5724 5727 5730 5733 5736 5740 5742 5745 5749 5753 5755 5756 5758 5761 5762 5763 5764 5766 5770 5772 5773 5776 5779 5780 5783 5786 5788 5791 5794 5797 5799 5802 5805 5810 5814 5817 5820 5821 5820 5822 5828 5827 5826 5835 5843 5843 5845 5851 5856 5859 5862 5863 5865 5866 5867 5869 5871 5874 5876 5877
5627 5629 5631 5630 5632 5635 5636 5637 5640 5642 5645 5648 5652 5658 5661 5665 5670 5675 5679 5683 5686 5689 5692 5696 5700 5704 5708 5711 5715 5719 5723 5726 5729 5733 5736 5739 5743 5747 5749 5750 5753 5755 5756 5758 5760 5763 5766 5766 5767 5770 5774 5776 5779 5783 5786 5789 5791 5792 5795 5798 5800 5803 5808 5811 5812 5812 5813 5817 5818 5819 5823 5832 5838 5838 5841 5847 5851 5853 5857 5860 5861 5863 5865 5866 5868 5870 5872 5874
5613 5616 5618 5618 5619 5622 5623 5624 5626 5628 5632 5635 5640 5645 5649 5652 5657 5662 5667 5672 5676 5679 5683 5687 5690 5694 5699 5703 5707 5712 5716 5719 5722 5725 5730 5733 5737 5740 5742 5744 5748 5750 5752 5755 5756 5759 5761 5761 5763 5766 5769 5772 5776 5780 5782 5783 5785 5787 5790 5793 5794 5796 5801 5804 5803 5805 5811 5812 5810 5814 5820 5823 5829 5835 5838 5842 5845 5849 5853 5856 5858 5860 5861 5862 5864 5866 5868 5870
5600 5603 5604 5606 5609 5610 5611 5613 5613 5616 5621 5624 5628 5634 5638 5642 5646 5650 5655 5661 5665 5669 5672 5676 5681 5686 5690 5695 5699 5704 5708 5711 5714 5718 5723 5726 5729 5733 5736 5740 5743 5745 5747 5750 5751 5754 5756 5757 5760 5762 5764 5768 5771 5774 5778 5779 5780 5783 5785 5786 5789 5791 5794 5796 5798 5803 5807 5806 5805 5810 5814 5815 5822 5830 5835 5838 5841 5844 5848 5851 5854 5856 5857 5858 5860 5862 5865 5866
5587 5591 5592 5594 5598 5600 5600 5602 5603 5607 5611 5613 5617 5623 5627 5631 5635 5638 5642 5647 5652 5657 5662 5667 5673 5677 5682 5687 5691 5694 5698 5703 5707 5711 5715 5719 5723 5728 5732 5735 5738 5741 5743 5745 5746 5749 5752 5754 5756 5758 5759 5762 5765 5769 5773 5774 5775 5777 5779 5781 5784 5786 5787 5790 5794 5799 5802 5801 5804 5807 5808 5810 5817 5824 5830 5835 5837 5839 5844 5847 5848 5850 5851 5852 5855 5859 5861 5863
5576 5579 5581 5583 5588 5591 5591 5592 5594 5597 5601 5603 5608 5613 5616 5620 5623 5626 5630 5636 5642 5648 5654 5659 5663 5667 5672 5676 5680 5685 5690 5695 5699 5703 5706 5711 5717 5722 5726 5729 5732 5735 5737 5740 5742 5745 5747 5749 5752 5754 5755 5756 5760 5764 5766 5769 5771 5773 5774 5776 5779 5780 5782 5784 5788 5792 5795 5797 5800 5804 5803 5805 5812 5819 5826 5831 5832 5834 5838 5840 5842 5845 5847 5848 5850 5854 5858 5859
5567 5569 5571 5574 5578 5581 5583 5584 5586 5589 5592 5595 5598 5602 5606 5609 5611 5616 5622 5628 5634 5638 5641 5645 5649 5654 5660 5666 5671 5677 5682 5685 5691 5695 5699 5704 5710 5715 5718 5722 5725 5727 5730 5734 5737 5739 5742 5744 5747 5749 5750 5752 5756 5759 5761 5764 5767 5767 5768 5770 5773 5775 5777 5778 5781 5785 5788 5791 5795 5797 5797 5799 5806 5814 5819 5824 5827 5829 5831 5835 5838 5840 5842 5844 5846 5850 5854 5856
5558 5560 5562 5565 5569 5572 5575 5576 5578 5581 5584 5587 5590 5593 5597 5600 5603 5608 5614 5618 5622 5625 5629 5634 5640 5646 5652 5658 5662 5667 5671 5677 5684 5689 5693 5698 5704 5708 5713 5717 5720 5722 5725 5729 5731 5734 5737 5739 5742 5744 5745 5748 5751 5755 5758 5760 5759 5758 5761 5765 5768 5769 5772 5774 5776 5778 5782 5786 5789 5790 5793 5797 5803 5808 5812 5817 5821 5823 5825 5830 5833 5836 5838 5840 5842 5846 5850 5852